CZ-6A DEB, 54953

Orbit data source: Space-Track

CZ-6A DEB, 54953 is space debris in SSO originally from a launch on Fri, 11 Nov 2022 UTC launched from the Taiyaun Space Center, China (TSC). Debris objects in space refer to the collection of defunct objects orbiting the Earth. Examples of debris include non-operational satellites, rocket bodies, and fragments generated from explosions, collisions, or faulty payload assembly.

Loading next visibility...
Identifier
54953, 2022-151SS
Orbit
SSO
Country
Flag of CNCN / PRC
Related business
Manufacturer
SAST
Mission
Spacecraft
Bus & Motor
Unknown
Mass
Unknown
Launch date (UTC)
2022-11-11 (4 years ago)
Launch vehicle
Unknown
Launch site
Taiyaun Space Center, China (TSC)
Object type
Payload
Rocket body
Debris
Shape & HBR
Unknown shape, 0.1 m
Radar Cross Section
Medium (>0.1 m² and <1 m²)

Expand to show TLE details & history
Last TLE update: 13 hours ago

TLE from 13 hours ago
0 CZ-6A DEB
1 54953U 22151SS  26236.08546691  .00003153  00000-0  70294-3 0  9992
2 54953  98.5431 283.1960 0080332  69.3099 291.6686 14.55608015199528
Epoch: 2026-08-24T02:03Z
TLE epoch observation values (Epoch: 2026-08-24T02:03:04.341Z)
Latitude
-0.00001°
Longitude
-79.94432°
Altitude
689.735 km
Speed
7.522 km/s
True Right ascension
18h 52m 47s
True Declination
0° 00' 00"
Sunlit
Object was in full shadow at epoch
Visualization orbit readout
Latitude
Unknown
Longitude
Unknown
Altitude
Unknown
Speed
Unknown
Apparent Right ascension
Unknown
Apparent Declination
Unknown
Sunlit
N/A
Visualization observer readout
Local Sidereal Time
05:49:01
Azimuth
Unknown
Elevation
Unknown
Doppler factor
Unknown
Orbital elements
Apogee altitude
761.39 km
Perigee altitude
647.598 km
Semi-major axis
7,082.631 km
Eccentricity
0.00803
Inclination
98.5431°
RAAN
283.196°
Arg. of periapsis
69.3099°
True anomaly
290.80996°
Mean anomaly
291.6686°
Eccentric anomaly
291.2396°
Mean motion
3.64126 °/min
Orbital period
98.87 mins
BSTAR
0.00070294
Loading maneuver chart data...
Computing Atmospheric mass density...
Loading historical data...
Loading historical data...
Loading historical data...
Loading historical data...
Loading historical data...
Loading historical data...
Loading historical data...

Documentation

Showing up to 5 results
|